DW3901 Weather Reports


time (UTC)temp
F
wind
direction
speed
knots
gust
knots
rain 1hr
in
rain 24hr
in
rain mn
in
humidity
%
barometer
mb
20260505183102 81 203 9.6 13.9 0.00 0.00 0.00 67 1001.4
20260505181557 81 182 9.6 17.4 0.00 0.00 0.00 67 1001.6
20260505180107 80 200 10.4 17.4 0.00 0.00 0.00 68 1001.4
20260505174603 80 213 12.2 19.1 0.00 0.00 0.00 70 1001.4
20260505173053 80 191 10.4 18.2 0.00 0.00 0.00 69 1001.4
20260505171550 79 174 8.7 18.2 0.00 0.00 0.00 71 1001.6
20260505170049 79 161 10.4 16.5 0.00 0.00 0.00 71 1001.5
20260505164550 78 190 8.7 21.7 0.00 0.00 0.00 72 1001.6
20260505163052 78 186 10.4 17.4 0.00 0.00 0.00 72 1002.0
20260505161549 78 204 10.4 20.0 0.00 0.00 0.00 72 1001.4
20260505153004 76 203 7.8 13.9 0.00 0.00 0.00 76 1001.2
20260505151603 76 186 9.6 16.5 0.00 0.00 0.00 78 1001.4
20260505124545 71 179 7.8 13.0 0.00 0.00 0.00 83 1001.0
20260505123041 71 180 9.6 14.8 0.00 0.00 0.00 84 1000.9
20260505121540 71 178 7.8 14.8 0.00 0.00 0.00 84 1000.9
20260505120042 70 167 8.7 13.0 0.00 0.00 0.00 85 1000.6
20260505114539 70 175 7.8 13.9 0.00 0.00 0.00 85 1000.5
20260505113038 70 156 7.0 12.2 0.00 0.00 0.00 84 1000.6
20260505111538 71 167 7.0 13.0 0.00 0.00 0.00 83 1000.4
20260505101536 71 194 7.8 15.6 0.00 0.00 0.00 83 1000.6
20260505100032 71 176 10.4 16.5 0.00 0.00 0.00 83 1000.4
20260505094531 70 156 8.7 16.5 0.00 0.00 0.00 84 1000.6
20260505093035 70 179 8.7 14.8 0.00 0.00 0.00 84 1000.8
20260505091528 70 187 8.7 17.4 0.00 0.00 0.00 84 1000.9
20260505090029 70 167 9.6 14.8 0.00 0.00 0.00 84 1001.0
20260505084529 70 174 8.7 16.5 0.00 0.00 0.00 83 1000.9
20260505083027 70 171 10.4 14.8 0.00 0.00 0.00 83 1000.9
20260505081523 71 187 10.4 15.6 0.00 0.00 0.00 82 1000.9
20260505080020 71 193 10.4 18.2 0.00 0.00 0.00 81 1001.1
20260505074518 71 190 8.7 14.8 0.00 0.00 0.00 81 1001.3
20260505073014 71 182 8.7 14.8 0.00 0.00 0.00 80 1001.6
20260505071513 71 184 10.4 19.1 0.00 0.00 0.00 79 1001.6
20260505070011 71 159 8.7 16.5 0.00 0.00 0.00 79 1001.9
20260505064508 72 146 9.6 17.4 0.00 0.00 0.00 78 1002.0
20260505063007 71 188 8.7 16.5 0.00 0.00 0.00 78 1002.1
20260505061509 72 167 11.3 18.2 0.00 0.00 0.00 77 1002.2
20260505060004 71 151 11.3 14.8 0.00 0.00 0.00 77 1002.1
20260505054501 71 153 8.7 14.8 0.00 0.00 0.00 77 1002.4
20260505053059 72 159 9.6 17.4 0.00 0.00 0.00 76 1002.5
20260505051612 72 165 8.7 16.5 0.00 0.00 0.00 75 1002.8
20260505041551 73 147 13.0 21.7 0.00 0.00 0.00 73 1002.8
20260505040048 73 149 9.6 18.2 0.00 0.00 0.00 73 1002.9
20260505034547 73 166 9.6 15.6 0.00 0.00 0.00 72 1002.9
20260505033047 73 156 9.6 15.6 0.00 0.00 0.00 71 1003.1
20260505031553 73 166 10.4 17.4 0.00 0.00 0.00 71 1003.0
20260505030046 74 157 11.3 16.5 0.00 0.00 0.00 71 1003.0
20260505024551 74 160 9.6 17.4 0.00 0.00 0.00 70 1002.9
20260505023045 74 148 8.7 16.5 0.00 0.00 0.00 69 1002.9
20260505021549 74 163 10.4 17.4 0.00 0.00 0.00 68 1002.7
20260505020044 74 175 9.6 16.5 0.00 0.00 0.00 68 1002.7
20260505014544 75 161 10.4 16.5 0.00 0.00 0.00 67 1002.8
20260505013043 75 148 11.3 19.1 0.00 0.00 0.00 66 1002.7
20260505011542 75 167 10.4 16.5 0.00 0.00 0.00 66 1002.8
20260505010053 76 157 10.4 16.5 0.00 0.00 0.00 65 1002.9
20260505004540 76 194 12.2 20.9 0.00 0.00 0.00 64 1002.8
20260505003040 77 171 13.0 20.9 0.00 0.00 0.00 63 1002.9
20260505001539 77 159 12.2 20.0 0.00 0.00 0.00 62 1003.0
20260505000045 77 141 12.2 18.2 0.00 0.00 0.00 62 1002.8
20260504234537 78 146 13.0 19.1 0.00 0.00 0.00 62 1003.0
20260504233043 78 142 12.2 18.2 0.00 0.00 0.00 60 1003.2
20260504231539 78 164 13.0 20.9 0.00 0.00 0.00 59 1003.5
20260504230036 79 159 12.2 20.9 0.00 0.00 0.00 59 1003.4
20260504224532 79 151 13.0 21.7 0.00 0.00 0.00 59 1003.7
20260504223032 79 148 15.6 23.5 0.00 0.00 0.00 58 1003.5
20260504221529 80 157 14.8 22.6 0.00 0.00 0.00 58 1003.7
20260504220030 80 149 13.0 21.7 0.00 0.00 0.00 57 1003.8
20260504214526 80 140 13.0 20.9 0.00 0.00 0.00 56 1004.1
20260504213024 79 150 13.9 22.6 0.00 0.00 0.00 56 1004.2
20260504211521 79 153 13.9 20.9 0.00 0.00 0.00 56 1004.5
20260504210019 79 162 14.8 21.7 0.00 0.00 0.00 54 1004.8
20260504204517 79 140 14.8 24.3 0.00 0.00 0.00 54 1005.0
20260504203022 79 166 12.2 20.9 0.00 0.00 0.00 54 1005.5
20260504201513 79 201 14.8 21.7 0.00 0.00 0.00 53 1005.7
20260504200011 79 163 11.3 19.1 0.00 0.00 0.00 53 1006.1
20260504194509 78 143 11.3 20.0 0.00 0.00 0.00 52 1006.3
20260504193014 78 142 12.2 19.1 0.00 0.00 0.00 51 1006.4
20260504191517 78 174 13.0 21.7 0.00 0.00 0.00 50 1006.8
20260504190002 77 172 13.9 20.0 0.00 0.00 0.00 50 1007.0
20260504184600 77 123 14.8 20.9 0.00 0.00 0.00 51 1007.0